Buffalo, NY

8:13 AM EST on November 13, 2019 (GMT -0500)
Buffalo Niagara International

Weather History for KBUF - September, 2019

Change the Weather History Date:

Monday, September 9, 2019

  Actual Average Record
Temperature  
Mean Temperature 61 °F 65 °F  
Max Temperature 69 °F 74 °F 95 °F (1959)
Min Temperature 53 °F 56 °F 40 °F (1883)
Degree Days  
Heating Degree Days 4 3  
Month to date heating degree days 13 18  
Since 1 July heating degree days 16 45  
Cooling Degree Days 0 2  
Month to date cooling degree days 12 27  
Year to date cooling degree days 557 514  
Growing Degree Days 11 (Base 50)    
Moisture  
Dew Point 50 °F    
Average Humidity 68    
Maximum Humidity 89    
Minimum Humidity 47    
Precipitation  
Precipitation 0.00 in 0.11 in 3.24 in (2004)
Month to date precipitation 1.85 1.03  
Year to date precipitation 30.22 26.19  
Snow  
Snow 0.00 in 0.00 in 0.00 in ()
Month to date snowfall 0.0 0.0  
Since 1 July snowfall 0.0 0.0  
Since 1 September snowfall 0.0 0.0  
Snow Depth 0.00 in    
Sea Level Pressure  
Sea Level Pressure 30.28 in    
Wind  
Wind Speed 6 mph (ENE)    
Max Wind Speed 15 mph    
Max Gust Speed 17 mph    
Visibility 10 miles    
Events      
T = Trace of Precipitation, MM = Missing Value Source: NWS Daily Summary

Daily Weather History Graph

Daily Weather History Graph

Search for Another Location

Airport or City:

Astronomy

Sep. 09, 2019 Rise Set
Actual Time 6:47 AM EDT 7:35 PM EDT
Civil Twilight 6:19 AM EDT 8:04 PM EDT
Nautical Twilight 5:44 AM EDT 8:38 PM EDT
Astronomical Twilight 5:09 AM EDT 9:14 PM EDT
Moon 5:36 PM EDT (9/9) 2:10 AM EDT (9/9)
Length of Visible Light 13h 45m
Length of Day
12h 48m
Waxing Gibbous, 83% of the Moon is Illuminated
Sep 9
Waxing Gibbous
Sep 14
Full
Sep 21
Last Quarter
Sep 28
New
Oct 5
First Quarter

Hourly Weather History & Observations

Time (EDT) Temp. Dew Point Humidity Pressure Visibility Wind Dir Wind Speed Gust Speed Precip Events Conditions
12:54 AM 55.0 °F 48.0 °F 77% 30.23 in 10.0 mi NNE 5.8 mph - N/A   Partly Cloudy
1:54 AM 54.0 °F 48.0 °F 80% 30.24 in 10.0 mi Calm Calm - N/A   Partly Cloudy
2:54 AM 54.0 °F 48.0 °F 80% 30.23 in 10.0 mi ESE 3.5 mph - N/A   Partly Cloudy
3:54 AM 53.1 °F 48.9 °F 86% 30.24 in 10.0 mi Calm Calm - N/A   Mostly Cloudy
4:54 AM 53.1 °F 50.0 °F 89% 30.24 in 10.0 mi NE 3.5 mph - N/A   Mostly Cloudy
5:54 AM 53.1 °F 50.0 °F 89% 30.24 in 10.0 mi ENE 4.6 mph - N/A   Scattered Clouds
6:54 AM 53.1 °F 48.9 °F 86% 30.27 in 10.0 mi ENE 4.6 mph - N/A   Scattered Clouds
7:54 AM 54.0 °F 50.0 °F 86% 30.29 in 10.0 mi NE 5.8 mph - N/A   Mostly Cloudy
8:54 AM 55.0 °F 51.1 °F 86% 30.31 in 10.0 mi ENE 5.8 mph - N/A   Mostly Cloudy
9:54 AM 57.9 °F 51.1 °F 78% 30.32 in 10.0 mi East 6.9 mph - N/A   Mostly Cloudy
10:54 AM 61.0 °F 51.1 °F 70% 30.31 in 10.0 mi ENE 11.5 mph - N/A   Mostly Cloudy
11:54 AM 64.9 °F 52.0 °F 63% 30.30 in 10.0 mi East 6.9 mph - N/A   Scattered Clouds
12:54 PM 66.0 °F 51.1 °F 59% 30.31 in 10.0 mi Variable 6.9 mph - N/A   Scattered Clouds
1:54 PM 69.1 °F 48.9 °F 49% 30.30 in 10.0 mi North 4.6 mph - N/A   Scattered Clouds
3:54 PM 66.9 °F 48.9 °F 52% 30.27 in 10.0 mi Variable 3.5 mph - N/A   Scattered Clouds
4:54 PM 66.9 °F 50.0 °F 54% 30.26 in 10.0 mi NE 6.9 mph - N/A   Scattered Clouds
5:54 PM 66.9 °F 52.0 °F 59% 30.28 in 10.0 mi NNE 11.5 mph - N/A   Partly Cloudy
6:54 PM 63.0 °F 52.0 °F 67% 30.29 in 10.0 mi NNE 11.5 mph - N/A   Partly Cloudy
7:54 PM 60.1 °F 51.1 °F 72% 30.30 in 10.0 mi NE 10.4 mph - N/A   Partly Cloudy
8:54 PM 59.0 °F 51.1 °F 75% 30.30 in 10.0 mi ENE 9.2 mph - N/A   Partly Cloudy
9:54 PM 57.9 °F 48.9 °F 72% 30.31 in 10.0 mi East 9.2 mph - N/A   Partly Cloudy
10:54 PM 57.0 °F 48.0 °F 72% 30.30 in 10.0 mi East 10.4 mph - N/A   Scattered Clouds
11:54 PM 55.9 °F 48.0 °F 75% 30.31 in 10.0 mi East 5.8 mph - N/A   Mostly Cloudy